Showing default

CH 3 PROPULSION MODULE, 57770

Orbit data source: Space-Track

CH 3 PROPULSION MODULE, 57770 is a payload satellite owned by ISRO (IN) in HEO that was launched on Fri, 14 Jul 2023 UTC via a LVM3 launch vehicle from the Sirharikota (SRI). Payload-class satellites include a variety of spacecraft equipped with specific instruments for various scientific and technological missions. These include communications satellites like Starlink; space stations such as the ISS; scientific satellites like the Hubble; Earth observation satellites from companies like Planet Labs, Umbra, and HawkEye 360; GPS; miniature CubeSats for education and research; and military/defense satellites.

Loading next visibility...
Identifier
57770, 2023-098C
Orbit
HEO
Country
Flag of ININ / IND
Related business
Manufacturer
ISRO SAC/Banga
Mission
Operational Civil Planetary
Bus & Motor
CH2O, LAE
Mass
2,145 kg wet, 448 kg dry
Launch date (UTC)
2023-07-14 (3 years ago)
Launch vehicle
LVM3
Launch site
Sirharikota (SRI)
Object type
Payload
Rocket body
Debris
Shape & HBR
Box + 1 Pan, 5.0 m
Radar Cross Section
16.757 m²

Expand to show TLE details & history
Last TLE update: 1 year ago

TLE from 1 year ago
0 CH 3 PROPULSION MODULE
1 57770U 23098C   25178.52673942 -.00003581  00000-0  00000-0 0  9997
2 57770  33.9343   3.0372 4096658 294.0371 359.8283  0.08228025   434
Epoch: 2025-06-27T12:38Z
TLE epoch observation values (Epoch: 2025-06-27T12:38:30.285Z)
Latitude
-28.95835°
Longitude
-158.14872°
Altitude
121,403.142 km
Speed
2.11 km/s
True Right ascension
20h 29m 25s
True Declination
-28° 57' 01"
Sunlit
Object was in daylight at epoch
Visualization orbit readout
Latitude
Unknown
Longitude
Unknown
Altitude
Unknown
Speed
Unknown
Apparent Right ascension
Unknown
Apparent Declination
Unknown
Sunlit
N/A
Visualization observer readout
Local Sidereal Time
21:34:14
Azimuth
Unknown
Elevation
Unknown
Doppler factor
Unknown
Orbital elements
Apogee altitude
308,388.097 km
Perigee altitude
125,438.406 km
Semi-major axis
223,291.389 km
Eccentricity
0.40967
Inclination
33.9343°
RAAN
3.0372°
Arg. of periapsis
294.0371°
True anomaly
359.55055°
Mean anomaly
359.8283°
Eccentric anomaly
359.70915°
Mean motion
0.02057 °/min
Orbital period
17,501.18 mins
BSTAR
0
Loading maneuver chart data...
Computing Atmospheric mass density...
Loading historical data...
Loading historical data...
Loading historical data...
Loading historical data...
Loading historical data...
Loading historical data...
Loading historical data...
Other satellites on launch #98 in the year 2023 (2023-07-14 UTC)

Documentation

Showing up to 5 results
|